2020-079G

Last updated on Thu Dec 03 2020 00:02:03 GMT+0000 (Coordinated Universal Time)

1 46833U 20079G 20337.53744325 .00004485 00000-0 15018-3 0 9999 2 46833 97.2668 49.2317 0009380 156.5421 318.5612 15.31416865 4037
UTC large
Height (km)
Speed (km/s)
/
Latitude / Longitude
Inclination (degrees)
Orbital Period (minutes)
Azimuth
Elevation
Range (km)
Doppler Factor

Next 0 passes for location: London (51.5072 / 0.1276)

Sorry there are no passes over London.